Regional Weather Roundup
Issued by NWS

Home | Current Version | Previous Version | Graphics & Text | Print | Product List | Glossary On
Versions: 1 2 3 4 5 6 7 8 9 10 11 12 13 14 15 16 17 18 19 20 21 22 23 24 25 26 27 28 29 30 31 32 33 34 35 36 37 38 39 40 41 42 43 44 45 46 47 48 49 50
000
ASUS45 KBOU 290807
RWRCO

WEATHER ROUNDUP FOR COLORADO
NATIONAL WEATHER SERVICE DENVER/BOULDER CO
200 AM MDT FRI AUG 29 2014

NOTE: "FAIR" INDICATES FEW OR NO CLOUDS BELOW 12000 FEET WITH NO
SIGNIFICANT WEATHER AND/OR OBSTRUCTIONS TO VISIBILITY.

COZ001>005-013-030-031-290900-
...NORTHWEST COLORADO...

CITY           SKY/WX    TMP DP  RH WIND       PRES   REMARKS
CRAIG          PTCLDY    49  46  90 CALM      30.23S
HAYDEN         CLEAR     52  45  76 E8        30.25S
MEEKER         CLEAR     50  46  86 E5        30.26S
MOUNT WERNER   NOT AVBL
STEAMBOAT SPGS CLEAR     47  45  93 CALM      30.27S
WALDEN         CLEAR     37  36  93 SE8       30.31S
$$

COZ006>008-011-290900-
...WEST CENTRAL VALLEYS...

CITY           SKY/WX    TMP DP  RH WIND       PRES   REMARKS
GRAND JUNCTION PTCLDY    61  51  70 SE14      30.15S
MONTROSE       CLEAR     57  46  66 SE9       30.24F
EAGLE          CLEAR     48  45  87 SE3       30.30S
RIFLE          CLEAR     54  49  83 CALM      30.21F
DELTA          CLEAR     57  50  79 E5        30.21S
NUCLA          CLEAR     54  45  71 E8        30.26F
$$

COZ017>023-064>068-290900-
...SOUTHWEST COLORADO...

CITY           SKY/WX    TMP DP  RH WIND       PRES   REMARKS
DURANGO        CLEAR     49  39  68 N3        30.23S
CORTEZ         CLEAR     49  45  86 CALM      30.21F
PAGOSA SPRINGS CLEAR     49  36  60 CALM      30.30F
TELLURIDE      CLEAR     45  39  81 E5        30.41F
WOLF CREEK PAS CLEAR     37  30  75 NE16      30.53F
$$

COZ009-010-012-014-032>034-037-058>063-290900-
...CENTRAL COLORADO...

CITY           SKY/WX    TMP DP  RH WIND       PRES   REMARKS
ASPEN          CLEAR     45  41  86 SW7       30.33F
BUENA VISTA    CLEAR     43  37  79 CALM      30.32S
COPPER MTN     CLOUDY    41  37  87 W21       30.53F
BERTHOUD PASS  FOG       34  32  93 NW24      30.54S VSB<1/4 WCI  21
COTTONWOOD PAS CLEAR     50  36  57 W8        30.41F
GUNNISON       CLEAR     45  37  76 NW3       30.36S
KREMMLING      CLEAR     41  37  87 CALM      30.32F
LEADVILLE      CLOUDY    40  36  86 NE7       30.42F
SALIDA         CLEAR     47  40  76 W6        30.37F
SUNLIGHT       CLEAR     45  43  93 CALM      30.50F
WILKERSON PASS NOT AVBL
$$

COZ069>075-290900-
...SAN LUIS VALLEY/SANGRE DE CRISTO MOUNTAINS...

CITY           SKY/WX    TMP DP  RH WIND       PRES   REMARKS
ALAMOSA        CLEAR     42  39  89 CALM      30.30S
LA VETA PASS   NOT AVBL
SAGUACHE       NOT AVBL
$$

COZ035-036-038>040-290900-
...NORTHERN COLORADO FRONT RANGE...

CITY           SKY/WX    TMP DP  RH WIND       PRES   REMARKS
DENVER INTL AP CLEAR     57  46  66 SW13      30.09F
DMNS CITY PARK   N/A     55  48  77 SW6G12    30.10S
AURORA         CLEAR     53  46  77 S8        30.11F
FRONT RANGE AP CLEAR     54  48  82 S9        30.10F
ERIE MUNI ARPT CLEAR     49  48  95 CALM      30.08F
BOULDER MUN AP CLEAR     54  46  76 SW7       30.08F
CENTENNIAL     CLEAR     53  45  74 SW7       30.12F
BROOMFIELD     CLEAR     55  45  67 W7        30.11F
FORT COLLINS   CLEAR     52  48  87 NW3       30.09F
LONGMONT       CLEAR     51  46  81 SW5       30.09F
$$

COZ041-046-047-076>085-087-088-290900-
...PIKES PEAK/PALMER DIVIDE AND SOUTHERN FOOTHILLS...

CITY           SKY/WX    TMP DP  RH WIND       PRES   REMARKS
COLO. SPRINGS  PTCLDY    52  44  74 N6        30.17F
A. F. ACADEMY  CLEAR     44  43  94 N6        30.18F
ELLICOTT       CLEAR     48  44  86 NE3       30.15F
FALCON         CLEAR     47  43  83 CALM      30.20F
FORT CARSON    CLEAR     50  46  86 NW8       30.14F
LIMON          CLEAR     49  47  93 N5        30.10F
MONUMENT HILL  CLEAR     46  41  81 W9        30.19F
TRINIDAD       CLEAR     54  47  77 W16       30.16F
$$

COZ042>045-048>051-090-091-290900-
...NORTHEAST COLORADO...

CITY           SKY/WX    TMP DP  RH WIND       PRES   REMARKS
GREELEY ARPT   CLEAR     50  43  76 CALM      30.07F
AKRON          CLEAR     55  51  86 W13       30.03F
BURLINGTON     PTCLDY    55  52  89 W6        30.01F
WRAY             N/A     57  55  91 W5        29.98F
STERLING       CLEAR     57  54  88 W5        30.00F
HOLYOKE        CLEAR     61  54  77 W7        29.98F
FORT MORGAN    CLEAR     54  49  86 NW6       30.05F
$$

COZ086-089-092>099-290900-
...SOUTHEAST COLORADO...

CITY           SKY/WX    TMP DP  RH WIND       PRES   REMARKS
PUEBLO         CLEAR     54  51  90 NW6       30.09F
LA JUNTA       PTCLDY    56  52  86 W8        30.06F
LAMAR          CLEAR     57  53  86 SW8       30.00F
SPRINGFIELD      N/A     56  51  84 NW10      30.06F
$$


USA.gov is the U.S. government's official web portal to all federal, state and local government web resources and services.